Weather WX

World > North America > United States > North Dakota

Gilby, North Dakota Regional Weather

Lat: 48.08N, Lon: 97.47W
Wx Zone: NDZ027
Warning FLW WEATHER ALERT - (More Info. Click Here) Warning
Feedback

Gilby, ND Regional Weather

Expires:201907160700;;714928
ASUS43 KBIS 160610
RWRND 

NORTH DAKOTA REGIONAL WEATHER ROUNDUP
NATIONAL WEATHER SERVICE BISMARCK ND
100 AM CDT TUE JUL 16 2019

NOTE: "FAIR" INDICATES FEW OR NO CLOUDS BELOW 12,000 FEET WITH NO
SIGNIFICANT WEATHER AND/OR OBSTRUCTIONS TO VISIBILITY.



NDZ004>008-012>016-024-026-027-054-160700-
NORTHEAST NORTH DAKOTA
  
CITY           SKY/WX    TMP DP  RH WIND       PRES   REMARKS
GRAND FORKS    CLEAR     64  60  87 W5        29.83R                  
GRND FRKS AFB  CLEAR     64  63  95 NW5       29.84R                  
DEVILS LAKE    CLEAR     67  62  84 NW9       29.89S                  
$$
 

SKY/WX - Weather  TMP - Temperature  DP - Dew Point  RH - Relative Humidity
WIND - Wind Direction/Speed PRES - Barometric Pressure VSB - Visibility
WCI - Wind Chill Index E13G22 Wind - East Wind 13 mph/Gusts of 22 mph